CCA1789 ZSHC-ZGGG

Flight info

Callsign CCA1789
Flight time 1h 55m
Altitude 30100
Route ELN81D ELNEX A599 PLT W19 OLPAB OLPAB1
Aircraft B38M/M-SDE1FGHILORVWXY/HB1

Departure

Time 2026-05-04 07:45
Airport Hangzhou Xiaoshan International Airport (ZSHC)

Arrival

Time 2026-05-04 09:40
Airport Guangzhou Baiyun International Airport (ZGGG)
Time Latitude Longitude Altitude Speed Heading
2026-05-04 07:42 30.24992 120.43910 34 ft 11 kts 63°
2026-05-04 07:43 30.25031 120.43999 34 ft 13 kts 61°
2026-05-04 07:43 30.25105 120.44025 35 ft 13 kts 347°
2026-05-04 07:43 30.25174 120.43977 35 ft 12 kts 308°
2026-05-04 07:43 30.25170 120.43882 34 ft 13 kts 242°
2026-05-04 07:44 30.25164 120.43867 34 ft 5 kts 243°
2026-05-04 07:44 30.25091 120.43703 33 ft 58 kts 242°
2026-05-04 07:44 30.24773 120.42987 35 ft 140 kts 243°
2026-05-04 07:44 30.24224 120.41760 193 ft 195 kts 244°
2026-05-04 07:45 30.23613 120.40209 675 ft 228 kts 243°
2026-05-04 07:45 30.22889 120.38534 1722 ft 235 kts 240°
2026-05-04 07:45 30.22129 120.36857 2879 ft 236 kts 241°
2026-05-04 07:45 30.21357 120.35137 4001 ft 244 kts 242°
2026-05-04 07:46 30.20567 120.33362 5122 ft 252 kts 243°
2026-05-04 07:46 30.19754 120.31524 6196 ft 260 kts 245°
2026-05-04 07:46 30.18936 120.29667 7397 ft 255 kts 245°
2026-05-04 07:46 30.18141 120.27862 8606 ft 248 kts 245°
2026-05-04 07:47 30.17441 120.26273 9678 ft 241 kts 245°
2026-05-04 07:47 30.16945 120.25145 10393 ft 236 kts 246°
2026-05-04 07:47 30.16059 120.23142 11460 ft 237 kts 245°
2026-05-04 07:49 30.10574 120.11105 11889 ft 242 kts 245°
2026-05-04 07:49 30.09630 120.09487 11884 ft 244 kts 233°
2026-05-04 07:49 30.08541 120.07977 11900 ft 245 kts 233°
2026-05-04 07:50 30.07457 120.06461 11901 ft 245 kts 233°
2026-05-04 07:50 30.06376 120.04945 11899 ft 245 kts 234°
2026-05-04 07:50 30.05310 120.03446 11896 ft 245 kts 234°
2026-05-04 07:50 30.04215 120.01904 11894 ft 245 kts 234°
2026-05-04 07:51 30.03135 120.00383 11904 ft 245 kts 234°
2026-05-04 07:51 30.02117 119.98745 12064 ft 259 kts 244°
2026-05-04 07:51 30.01219 119.96908 12733 ft 269 kts 243°
2026-05-04 07:51 30.00254 119.94985 13243 ft 286 kts 243°
2026-05-04 07:52 29.99216 119.92945 13714 ft 305 kts 242°
2026-05-04 07:52 29.98100 119.90774 14073 ft 324 kts 242°
2026-05-04 07:52 29.96928 119.88505 14412 ft 342 kts 242°
2026-05-04 07:52 29.95665 119.86072 14845 ft 355 kts 242°
2026-05-04 07:53 29.94393 119.83621 15617 ft 356 kts 242°
2026-05-04 07:54 29.84427 119.67314 20507 ft 377 kts 211°
2026-05-04 07:55 29.81887 119.66408 21113 ft 391 kts 194°
2026-05-04 07:55 29.79757 119.66226 21588 ft 395 kts 190°
2026-05-04 07:55 29.77160 119.65582 21990 ft 385 kts 211°
2026-05-04 07:55 29.75031 119.63846 22507 ft 373 kts 231°
2026-05-04 07:56 29.73271 119.61643 22926 ft 377 kts 231°
2026-05-04 07:56 29.71482 119.59430 23491 ft 378 kts 232°
2026-05-04 07:56 29.69695 119.57200 23953 ft 380 kts 232°
2026-05-04 07:56 29.67905 119.54955 24428 ft 380 kts 232°
2026-05-04 07:57 29.66115 119.52706 24894 ft 382 kts 232°
2026-05-04 07:57 29.64316 119.50444 25284 ft 385 kts 231°
2026-05-04 07:57 29.62518 119.48163 25726 ft 386 kts 232°
2026-05-04 07:57 29.60718 119.45868 26161 ft 387 kts 232°
2026-05-04 07:58 29.58913 119.43570 26592 ft 389 kts 232°
2026-05-04 07:58 29.57095 119.41257 27010 ft 390 kts 232°
2026-05-04 07:58 29.55273 119.38941 27386 ft 392 kts 232°
2026-05-04 07:58 29.53442 119.36608 27790 ft 393 kts 232°
2026-05-04 07:59 29.52227 119.35060 28054 ft 394 kts 232°
2026-05-04 07:59 29.49762 119.31921 28576 ft 397 kts 231°
2026-05-04 07:59 29.47910 119.29564 28953 ft 398 kts 232°
2026-05-04 07:59 29.46681 119.28002 29197 ft 399 kts 231°
2026-05-04 08:00 29.44185 119.24830 29674 ft 401 kts 231°
2026-05-04 08:00 29.42949 119.23261 29961 ft 400 kts 232°
2026-05-04 08:00 29.41085 119.20895 30204 ft 399 kts 231°
2026-05-04 08:02 29.28459 119.04922 30194 ft 397 kts 231°
2026-05-04 08:02 29.24749 119.00245 30188 ft 397 kts 231°
2026-05-04 08:03 29.21029 118.95565 30206 ft 397 kts 231°
2026-05-04 08:03 29.17317 118.90901 30205 ft 397 kts 231°
2026-05-04 08:04 29.13602 118.86238 30199 ft 397 kts 231°
2026-05-04 08:04 29.09886 118.81579 30186 ft 396 kts 231°
2026-05-04 08:05 29.06166 118.76920 30197 ft 397 kts 231°
2026-05-04 08:05 29.02432 118.72253 30195 ft 397 kts 231°
2026-05-04 08:06 28.98708 118.67600 30191 ft 397 kts 232°
2026-05-04 08:06 28.94968 118.62934 30187 ft 398 kts 232°
2026-05-04 08:08 28.80062 118.44388 30199 ft 397 kts 232°
2026-05-04 08:11 28.63338 118.23679 30190 ft 397 kts 232°
2026-05-04 08:11 28.57721 118.16747 30174 ft 397 kts 232°
2026-05-04 08:12 28.53976 118.12132 30177 ft 397 kts 232°
2026-05-04 08:12 28.50227 118.07518 30178 ft 397 kts 232°
2026-05-04 08:13 28.46483 118.02913 30181 ft 397 kts 232°
2026-05-04 08:13 28.42729 117.98301 30177 ft 397 kts 232°
2026-05-04 08:14 28.38912 117.93771 30172 ft 397 kts 231°
2026-05-04 08:16 28.23637 117.75737 30180 ft 397 kts 231°
2026-05-04 08:16 28.19785 117.71202 30171 ft 397 kts 231°
2026-05-04 08:17 28.15975 117.66720 30179 ft 397 kts 231°
2026-05-04 08:17 28.12147 117.62221 30181 ft 397 kts 231°
2026-05-04 08:19 27.96777 117.44216 30194 ft 398 kts 231°
2026-05-04 08:20 27.92931 117.39721 30155 ft 398 kts 231°
2026-05-04 08:20 27.89072 117.35218 30197 ft 400 kts 231°
2026-05-04 08:21 27.85213 117.30721 30168 ft 398 kts 231°
2026-05-04 08:21 27.81350 117.26223 30170 ft 399 kts 231°
2026-05-04 08:22 27.77479 117.21720 30172 ft 399 kts 231°
2026-05-04 08:24 27.62111 117.03893 30178 ft 400 kts 231°
2026-05-04 08:24 27.58255 116.99433 30178 ft 400 kts 231°
2026-05-04 08:25 27.54342 116.94911 30186 ft 400 kts 231°
2026-05-04 08:25 27.50501 116.90438 30173 ft 400 kts 231°
2026-05-04 08:27 27.35044 116.72373 30172 ft 401 kts 232°
2026-05-04 08:28 27.31171 116.67858 30168 ft 401 kts 231°
2026-05-04 08:28 27.27305 116.63357 30178 ft 401 kts 232°
2026-05-04 08:29 27.23434 116.58855 30171 ft 401 kts 232°
2026-05-04 08:31 27.08281 116.40607 30175 ft 399 kts 233°
2026-05-04 08:33 26.93214 116.22456 30174 ft 397 kts 233°
2026-05-04 08:35 26.78274 116.04277 30175 ft 396 kts 233°
2026-05-04 08:35 26.74538 115.99742 30169 ft 396 kts 233°
2026-05-04 08:37 26.62157 115.84746 30165 ft 396 kts 233°
2026-05-04 08:38 26.58384 115.80185 30148 ft 397 kts 233°
2026-05-04 08:38 26.54636 115.75662 30165 ft 397 kts 233°
2026-05-04 08:40 26.39643 115.57609 30158 ft 397 kts 233°
2026-05-04 08:41 26.35885 115.53095 30159 ft 397 kts 233°
2026-05-04 08:41 26.32127 115.48587 30160 ft 397 kts 233°
2026-05-04 08:42 26.28427 115.44151 30161 ft 398 kts 233°
2026-05-04 08:42 26.24980 115.40024 30150 ft 398 kts 233°
2026-05-04 08:43 26.21215 115.35520 30157 ft 397 kts 233°
2026-05-04 08:43 26.17785 115.31422 30151 ft 397 kts 233°
2026-05-04 08:44 26.14015 115.26920 30151 ft 398 kts 233°
2026-05-04 08:46 26.00764 115.11136 30153 ft 399 kts 233°
2026-05-04 08:46 25.96975 115.06631 30133 ft 399 kts 232°
2026-05-04 08:47 25.94197 115.03334 30161 ft 399 kts 233°
2026-05-04 08:47 25.90580 114.99042 30156 ft 399 kts 233°
2026-05-04 08:48 25.86792 114.94551 30150 ft 399 kts 233°
2026-05-04 08:48 25.83042 114.90112 30146 ft 399 kts 232°
2026-05-04 08:48 25.80851 114.88161 30137 ft 412 kts 217°
2026-05-04 08:49 25.78150 114.86939 30153 ft 429 kts 204°
2026-05-04 08:50 25.57616 114.81732 30145 ft 433 kts 202°
2026-05-04 08:51 25.51739 114.80275 30147 ft 432 kts 202°
2026-05-04 08:51 25.45879 114.78825 30150 ft 432 kts 201°
2026-05-04 08:52 25.40019 114.77375 30150 ft 431 kts 202°
2026-05-04 08:52 25.34172 114.75931 30156 ft 430 kts 202°
2026-05-04 08:54 25.12327 114.70545 30153 ft 428 kts 202°
2026-05-04 08:55 25.06482 114.69108 30159 ft 429 kts 201°
2026-05-04 08:55 25.00683 114.67683 30165 ft 429 kts 201°
2026-05-04 09:01 24.44696 114.44161 28617 ft 401 kts 217°
2026-05-04 09:01 24.42631 114.42861 28109 ft 397 kts 217°
2026-05-04 09:01 24.40314 114.41405 27501 ft 394 kts 216°
2026-05-04 09:01 24.37946 114.39919 26985 ft 390 kts 216°
2026-05-04 09:02 24.35663 114.38486 26500 ft 386 kts 216°
2026-05-04 09:02 24.33284 114.36995 25967 ft 383 kts 216°
2026-05-04 09:02 24.31012 114.35571 25460 ft 384 kts 216°
2026-05-04 09:02 24.28685 114.34113 24909 ft 385 kts 216°
2026-05-04 09:03 24.26368 114.32662 24397 ft 383 kts 217°
2026-05-04 09:03 24.24087 114.31233 23889 ft 381 kts 216°
2026-05-04 09:03 24.21788 114.29796 23318 ft 380 kts 216°
2026-05-04 09:03 24.20240 114.28828 22914 ft 377 kts 216°
2026-05-04 09:04 24.18524 114.27755 22528 ft 375 kts 216°
2026-05-04 09:04 24.16389 114.26420 22051 ft 371 kts 216°
2026-05-04 09:04 24.14496 114.25238 21635 ft 367 kts 216°
2026-05-04 09:04 24.12286 114.23857 21165 ft 364 kts 216°
2026-05-04 09:05 24.10095 114.22489 20644 ft 362 kts 216°
2026-05-04 09:05 24.08105 114.20878 20122 ft 352 kts 230°
2026-05-04 09:05 24.06473 114.18894 19628 ft 349 kts 232°
2026-05-04 09:05 24.04870 114.16920 19208 ft 346 kts 232°
2026-05-04 09:06 24.03291 114.14950 18768 ft 344 kts 232°
2026-05-04 09:07 23.92483 114.01183 15475 ft 338 kts 232°
2026-05-04 09:08 23.90962 113.99227 15034 ft 337 kts 232°
2026-05-04 09:08 23.89444 113.97276 14583 ft 337 kts 232°
2026-05-04 09:08 23.87949 113.95355 14147 ft 336 kts 232°
2026-05-04 09:08 23.86435 113.93411 13678 ft 337 kts 232°
2026-05-04 09:09 23.84915 113.91460 13171 ft 337 kts 231°
2026-05-04 09:09 23.83456 113.89480 12848 ft 330 kts 240°
2026-05-04 09:09 23.82625 113.87204 12824 ft 322 kts 254°
2026-05-04 09:09 23.82015 113.84855 12784 ft 322 kts 254°
2026-05-04 09:10 23.81413 113.82504 12739 ft 321 kts 254°
2026-05-04 09:10 23.80820 113.80151 12695 ft 321 kts 254°
2026-05-04 09:10 23.80231 113.77793 12659 ft 322 kts 255°
2026-05-04 09:10 23.79647 113.75442 12613 ft 321 kts 255°
2026-05-04 09:11 23.79061 113.73083 12574 ft 322 kts 255°
2026-05-04 09:11 23.78474 113.70723 12538 ft 323 kts 255°
2026-05-04 09:11 23.77888 113.68364 12492 ft 322 kts 255°
2026-05-04 09:11 23.77302 113.66007 12468 ft 321 kts 255°
2026-05-04 09:12 23.76717 113.63651 12431 ft 321 kts 255°
2026-05-04 09:12 23.76129 113.61293 12395 ft 322 kts 255°
2026-05-04 09:14 23.72072 113.45039 12123 ft 321 kts 255°
2026-05-04 09:14 23.71482 113.42682 12091 ft 321 kts 255°
2026-05-04 09:14 23.70895 113.40338 12051 ft 321 kts 255°
2026-05-04 09:14 23.70306 113.37991 11974 ft 320 kts 255°
2026-05-04 09:15 23.69719 113.35648 11876 ft 320 kts 255°
2026-05-04 09:15 23.69132 113.33309 11855 ft 320 kts 255°
2026-05-04 09:15 23.68544 113.30968 11836 ft 320 kts 255°
2026-05-04 09:15 23.67965 113.28664 11835 ft 309 kts 255°
2026-05-04 09:17 23.60278 113.22772 11140 ft 272 kts 198°
2026-05-04 09:23 23.59177 113.22502 11034 ft 273 kts 197°
2026-05-04 09:23 23.57336 113.22064 10875 ft 274 kts 197°
2026-05-04 09:25 23.44328 113.19117 9741 ft 271 kts 196°
2026-05-04 09:25 23.42483 113.18703 9568 ft 271 kts 196°
2026-05-04 09:26 23.40635 113.18291 9398 ft 270 kts 195°
2026-05-04 09:26 23.38791 113.17888 9217 ft 270 kts 195°
2026-05-04 09:26 23.36955 113.17486 9060 ft 269 kts 195°
2026-05-04 09:26 23.35116 113.17083 8911 ft 269 kts 195°
2026-05-04 09:27 23.33284 113.16682 8775 ft 269 kts 195°
2026-05-04 09:27 23.31452 113.16281 8616 ft 268 kts 195°
2026-05-04 09:27 23.29623 113.15881 8463 ft 268 kts 195°
2026-05-04 09:27 23.27800 113.15481 8311 ft 267 kts 195°
2026-05-04 09:28 23.25976 113.15082 8165 ft 267 kts 195°
2026-05-04 09:28 23.24157 113.14684 8009 ft 266 kts 195°
2026-05-04 09:28 23.22344 113.14287 7853 ft 266 kts 195°
2026-05-04 09:28 23.20529 113.13891 7701 ft 265 kts 194°
2026-05-04 09:29 23.18718 113.13495 7551 ft 265 kts 194°
2026-05-04 09:29 23.16913 113.13100 7398 ft 265 kts 194°
2026-05-04 09:29 23.15117 113.12708 7260 ft 265 kts 194°
2026-05-04 09:29 23.13317 113.12304 7098 ft 264 kts 194°
2026-05-04 09:30 23.11525 113.11896 6919 ft 263 kts 194°
2026-05-04 09:30 23.09733 113.11489 6781 ft 263 kts 194°
2026-05-04 09:30 23.07935 113.11141 6617 ft 264 kts 186°
2026-05-04 09:30 23.06725 113.11239 6494 ft 266 kts 169°
2026-05-04 09:31 23.04908 113.12243 6311 ft 271 kts 141°
2026-05-04 09:31 23.03768 113.13872 6162 ft 274 kts 115°
2026-05-04 09:31 23.03215 113.15843 6005 ft 274 kts 105°
2026-05-04 09:31 23.02891 113.17871 5833 ft 274 kts 88°
2026-05-04 09:32 23.03369 113.19836 5704 ft 266 kts 60°
2026-05-04 09:32 23.04553 113.21281 5592 ft 251 kts 37°
2026-05-04 09:34 23.14622 113.24731 3828 ft 189 kts 16°
2026-05-04 09:34 23.15455 113.24956 3690 ft 183 kts 16°
2026-05-04 09:34 23.16285 113.25179 3585 ft 177 kts 16°
2026-05-04 09:34 23.17365 113.25470 3456 ft 172 kts 16°
2026-05-04 09:35 23.18527 113.25785 3327 ft 172 kts 16°
2026-05-04 09:35 23.19683 113.26097 3199 ft 171 kts 17°
2026-05-04 09:35 23.20835 113.26408 3055 ft 171 kts 16°
2026-05-04 09:35 23.21976 113.26717 2895 ft 164 kts 16°
2026-05-04 09:37 23.28714 113.28540 1688 ft 145 kts 15°
2026-05-04 09:37 23.29695 113.28806 1495 ft 144 kts 15°
2026-05-04 09:38 23.30657 113.29066 1318 ft 142 kts 15°
2026-05-04 09:38 23.31501 113.29296 1160 ft 142 kts 15°
2026-05-04 09:38 23.32459 113.29555 972 ft 142 kts 14°
2026-05-04 09:38 23.33187 113.29746 851 ft 142 kts 15°
2026-05-04 09:39 23.34147 113.30018 658 ft 143 kts 15°
2026-05-04 09:39 23.35121 113.30282 481 ft 146 kts 15°
2026-05-04 09:39 23.36107 113.30547 322 ft 146 kts 15°
2026-05-04 09:39 23.37008 113.30793 165 ft 144 kts 16°
2026-05-04 09:40 23.37934 113.31049 59 ft 125 kts 16°
2026-05-04 09:40 23.38295 113.31151 57 ft 1 kts 13°
2026-05-04 09:40 23.38336 113.31160 57 ft 9 kts
2026-05-04 09:40 23.38414 113.31169 57 ft 13 kts
2026-05-04 09:41 23.38512 113.31190 56 ft 16 kts 15°
2026-05-04 09:42 23.39095 113.31145 55 ft 6 kts 17°
2026-05-04 09:43 23.39141 113.31160 55 ft 8 kts 16°
2026-05-04 09:43 23.39205 113.31180 54 ft 11 kts 13°
2026-05-04 09:43 23.39276 113.31195 56 ft 11 kts 16°
2026-05-04 09:43 23.39359 113.31222 56 ft 14 kts 17°
2026-05-04 09:44 23.39457 113.31244 57 ft 16 kts 13°
2026-05-04 09:44 23.39564 113.31273 56 ft 18 kts 14°
2026-05-04 09:44 23.39691 113.31309 56 ft 16 kts 14°
2026-05-04 09:46 23.39806 113.30955 61 ft 5 kts 244°
2026-05-04 09:46 23.39773 113.30929 61 ft 7 kts 199°
2026-05-04 09:46 23.39729 113.30896 56 ft 9 kts 249°
2026-05-04 09:47 23.39737 113.30835 61 ft 5 kts 313°
2026-05-04 09:47 23.39766 113.30826 59 ft 5 kts 358°
2026-05-04 09:49 23.39840 113.30746 57 ft 8 kts 189°
2026-05-04 09:49 23.39807 113.30730 56 ft 6 kts 221°
2026-05-04 09:49 23.39788 113.30680 61 ft 8 kts 257°
2026-05-04 09:51 23.39773 113.30598 61 ft 0 kts 259°